Time,TemperatureF,DewpointF,PressureIn,WindDirection,WindDirectionDegrees,WindSpeedMPH,WindSpeedGustMPH,Humidity,HourlyPrecipIn,Conditions,Clouds,dailyrainin,SoftwareType,DateUTC
2013-03-04 00:01:00,20.0,15.0,29.94,NW,318,2.0,-999.0,82,-99.99,,,-99.99,,2013-03-04 05:01:00,
2013-03-04 00:11:00,20.0,15.0,29.94,NW,318,2.0,-999.0,82,-99.99,,,-99.99,,2013-03-04 05:11:00,
2013-03-04 00:22:00,20.0,15.0,29.95,NW,308,3.0,-999.0,82,-99.99,,,-99.99,,2013-03-04 05:22:00,
2013-03-04 00:32:00,20.0,15.0,29.95,NNW,332,5.0,-999.0,81,-99.99,,,-99.99,,2013-03-04 05:32:00,
2013-03-04 00:42:00,20.0,15.0,29.95,NNW,332,5.0,-999.0,81,-99.99,,,-99.99,,2013-03-04 05:42:00,
2013-03-04 00:52:00,19.0,14.0,29.95,NNW,335,6.0,-999.0,81,-99.99,,,-99.99,,2013-03-04 05:52:00,
2013-03-04 01:02:00,19.0,14.0,29.95,NNW,330,5.0,-999.0,80,-99.99,,,-99.99,,2013-03-04 06:02:00,
2013-03-04 01:11:00,19.0,14.0,29.95,NNW,330,5.0,-999.0,80,-99.99,,,-99.99,,2013-03-04 06:11:00,
2013-03-04 01:22:00,19.0,14.0,29.96,NW,318,4.0,-999.0,80,-99.99,,,-99.99,,2013-03-04 06:22:00,
2013-03-04 01:32:00,19.0,14.0,29.96,NW,318,2.0,-999.0,79,-99.99,,,-99.99,,2013-03-04 06:32:00,
2013-03-04 01:42:00,19.0,14.0,29.96,NW,318,2.0,-999.0,79,-99.99,,,-99.99,,2013-03-04 06:42:00,
2013-03-04 01:51:00,19.0,14.0,29.96,NW,308,2.0,-999.0,79,-99.99,,,-99.99,,2013-03-04 06:51:00,
2013-03-04 02:02:00,19.0,14.0,29.96,WSW,251,1.0,-999.0,80,-99.99,,,-99.99,,2013-03-04 07:02:00,
2013-03-04 02:11:00,19.0,14.0,29.96,WSW,251,1.0,-999.0,80,-99.99,,,-99.99,,2013-03-04 07:11:00,
2013-03-04 02:22:00,19.0,14.0,29.96,WNW,299,1.0,-999.0,81,-99.99,,,-99.99,,2013-03-04 07:22:00,
2013-03-04 02:32:00,19.0,14.0,29.96,WNW,298,0.0,-999.0,81,-99.99,,,-99.99,,2013-03-04 07:32:00,
2013-03-04 02:42:00,19.0,14.0,29.96,WNW,298,0.0,-999.0,81,-99.99,,,-99.99,,2013-03-04 07:42:00,
2013-03-04 02:52:00,19.0,15.0,29.96,WSW,243,1.0,-999.0,83,-99.99,,,-99.99,,2013-03-04 07:52:00,
2013-03-04 03:02:00,19.0,15.0,29.96,SSW,203,1.0,-999.0,83,-99.99,,,-99.99,,2013-03-04 08:02:00,
2013-03-04 03:12:00,19.0,15.0,29.96,SSW,203,1.0,-999.0,83,-99.99,,,-99.99,,2013-03-04 08:12:00,
2013-03-04 03:22:00,19.0,15.0,29.96,West,280,0.0,-999.0,84,-99.99,,,-99.99,,2013-03-04 08:22:00,
2013-03-04 03:32:00,19.0,15.0,29.97,SW,233,1.0,-999.0,84,-99.99,,,-99.99,,2013-03-04 08:32:00,
2013-03-04 03:42:00,19.0,15.0,29.97,SW,233,1.0,-999.0,84,-99.99,,,-99.99,,2013-03-04 08:42:00,
2013-03-04 03:52:00,19.0,15.0,29.97,NW,306,1.0,-999.0,84,-99.99,,,-99.99,,2013-03-04 08:52:00,
2013-03-04 04:02:00,19.0,15.0,29.97,WNW,294,0.0,-999.0,84,-99.99,,,-99.99,,2013-03-04 09:02:00,
2013-03-04 04:11:00,19.0,15.0,29.97,WNW,294,0.0,-999.0,84,-99.99,,,-99.99,,2013-03-04 09:11:00,
2013-03-04 04:22:00,19.0,15.0,29.97,West,272,1.0,-999.0,84,-99.99,,,-99.99,,2013-03-04 09:22:00,
2013-03-04 04:32:00,19.0,15.0,29.97,NNW,332,2.0,-999.0,84,-99.99,,,-99.99,,2013-03-04 09:32:00,
2013-03-04 04:42:00,19.0,15.0,29.97,NNW,332,2.0,-999.0,84,-99.99,,,-99.99,,2013-03-04 09:42:00,
2013-03-04 04:52:00,20.0,16.0,29.98,NW,320,2.0,-999.0,83,-99.99,,,-99.99,,2013-03-04 09:52:00,
2013-03-04 05:01:00,20.0,15.0,29.98,NNW,335,3.0,-999.0,82,-99.99,,,-99.99,,2013-03-04 10:01:00,
2013-03-04 05:12:00,20.0,15.0,29.98,NNW,335,3.0,-999.0,82,-99.99,,,-99.99,,2013-03-04 10:12:00,
2013-03-04 05:22:00,20.0,15.0,29.98,NNW,328,1.0,-999.0,82,-99.99,,,-99.99,,2013-03-04 10:22:00,
2013-03-04 05:32:00,20.0,15.0,29.98,NW,320,2.0,-999.0,82,-99.99,,,-99.99,,2013-03-04 10:32:00,
2013-03-04 05:42:00,20.0,15.0,29.98,NW,320,2.0,-999.0,82,-99.99,,,-99.99,,2013-03-04 10:42:00,
2013-03-04 05:52:00,20.0,15.0,29.98,NW,325,4.0,-999.0,81,-99.99,,,-99.99,,2013-03-04 10:52:00,
2013-03-04 06:02:00,20.0,15.0,29.99,NW,319,5.0,-999.0,79,-99.99,,,-99.99,,2013-03-04 11:02:00,
2013-03-04 06:11:00,20.0,15.0,29.99,NW,319,5.0,-999.0,79,-99.99,,,-99.99,,2013-03-04 11:11:00,
2013-03-04 06:22:00,20.0,15.0,29.99,NW,326,3.0,-999.0,79,-99.99,,,-99.99,,2013-03-04 11:22:00,
2013-03-04 06:32:00,20.0,15.0,30.00,NNW,330,2.0,-999.0,80,-99.99,,,-99.99,,2013-03-04 11:32:00,
2013-03-04 06:42:00,20.0,15.0,30.00,NNW,330,2.0,-999.0,80,-99.99,,,-99.99,,2013-03-04 11:42:00,
2013-03-04 06:52:00,20.0,15.0,30.00,WNW,296,4.0,-999.0,80,-99.99,,,-99.99,,2013-03-04 11:52:00,
2013-03-04 07:02:00,20.0,15.0,30.01,NW,322,4.0,-999.0,80,-99.99,,,-99.99,,2013-03-04 12:02:00,
2013-03-04 07:11:00,20.0,15.0,30.01,NW,322,4.0,-999.0,80,-99.99,,,-99.99,,2013-03-04 12:11:00,
2013-03-04 07:22:00,20.0,15.0,30.01,NW,313,2.0,-999.0,80,-99.99,,,-99.99,,2013-03-04 12:22:00,
2013-03-04 07:32:00,19.0,14.0,30.02,West,268,1.0,-999.0,80,-99.99,,,-99.99,,2013-03-04 12:32:00,
2013-03-04 07:42:00,19.0,14.0,30.02,West,268,1.0,-999.0,80,-99.99,,,-99.99,,2013-03-04 12:42:00,
2013-03-04 07:52:00,19.0,14.0,30.02,West,280,1.0,-999.0,81,-99.99,,,-99.99,,2013-03-04 12:52:00,
2013-03-04 08:02:00,20.0,15.0,30.03,NW,316,2.0,-999.0,79,-99.99,,,-99.99,,2013-03-04 13:02:00,
2013-03-04 08:11:00,20.0,15.0,30.03,NW,316,2.0,-999.0,79,-99.99,,,-99.99,,2013-03-04 13:11:00,
2013-03-04 08:22:00,20.0,15.0,30.03,WSW,251,1.0,-999.0,79,-99.99,,,-99.99,,2013-03-04 13:22:00,
2013-03-04 08:32:00,20.0,15.0,30.04,SW,223,1.0,-999.0,79,-99.99,,,-99.99,,2013-03-04 13:32:00,
2013-03-04 08:42:00,20.0,15.0,30.04,SW,223,1.0,-999.0,79,-99.99,,,-99.99,,2013-03-04 13:42:00,
2013-03-04 08:52:00,20.0,15.0,30.05,SW,229,1.0,-999.0,80,-99.99,,,-99.99,,2013-03-04 13:52:00,
2013-03-04 09:01:00,21.0,16.0,30.04,NW,318,2.0,-999.0,79,-99.99,,,-99.99,,2013-03-04 14:01:00,
2013-03-04 09:12:00,21.0,16.0,30.04,NW,318,2.0,-999.0,79,-99.99,,,-99.99,,2013-03-04 14:12:00,
2013-03-04 09:22:00,22.0,16.0,30.04,SSW,210,1.0,-999.0,78,-99.99,,,-99.99,,2013-03-04 14:22:00,
2013-03-04 09:32:00,22.0,16.0,30.04,NW,306,3.0,-999.0,76,-99.99,,,-99.99,,2013-03-04 14:32:00,
2013-03-04 09:42:00,22.0,16.0,30.04,NW,306,3.0,-999.0,76,-99.99,,,-99.99,,2013-03-04 14:42:00,
2013-03-04 09:52:00,22.0,15.0,30.04,WNW,282,2.0,-999.0,74,-99.99,,,-99.99,,2013-03-04 14:52:00,
2013-03-04 10:02:00,22.0,15.0,30.04,West,271,2.0,-999.0,74,-99.99,,,-99.99,,2013-03-04 15:02:00,
2013-03-04 10:11:00,22.0,15.0,30.04,West,271,2.0,-999.0,74,-99.99,,,-99.99,,2013-03-04 15:11:00,
2013-03-04 10:22:00,22.0,15.0,30.04,WSW,256,2.0,-999.0,75,-99.99,,,-99.99,,2013-03-04 15:22:00,
2013-03-04 10:32:00,22.0,16.0,30.04,NW,318,2.0,-999.0,76,-99.99,,,-99.99,,2013-03-04 15:32:00,
2013-03-04 10:42:00,22.0,16.0,30.04,NW,318,2.0,-999.0,76,-99.99,,,-99.99,,2013-03-04 15:42:00,
2013-03-04 10:52:00,22.0,16.0,30.04,West,267,2.0,-999.0,76,-99.99,,,-99.99,,2013-03-04 15:52:00,
2013-03-04 11:03:00,22.0,16.0,30.04,NNW,330,3.0,-999.0,76,-99.99,,,-99.99,,2013-03-04 16:03:00,
2013-03-04 11:11:00,22.0,16.0,30.04,NNW,330,3.0,-999.0,76,-99.99,,,-99.99,,2013-03-04 16:11:00,
2013-03-04 11:21:00,23.0,16.0,30.05,NW,308,2.0,-999.0,75,-99.99,,,-99.99,,2013-03-04 16:21:00,
2013-03-04 11:32:00,23.0,16.0,30.04,WNW,285,2.0,-999.0,75,-99.99,,,-99.99,,2013-03-04 16:32:00,
2013-03-04 11:42:00,23.0,16.0,30.04,WNW,285,2.0,-999.0,75,-99.99,,,-99.99,,2013-03-04 16:42:00,
2013-03-04 11:52:00,23.0,16.0,30.04,NW,313,4.0,-999.0,73,-99.99,,,-99.99,,2013-03-04 16:52:00,
2013-03-04 12:02:00,24.0,16.0,30.04,NW,323,5.0,-999.0,72,-99.99,,,-99.99,,2013-03-04 17:02:00,
2013-03-04 12:11:00,24.0,16.0,30.04,NW,323,5.0,-999.0,72,-99.99,,,-99.99,,2013-03-04 17:11:00,
2013-03-04 12:22:00,24.0,16.0,30.04,NW,311,5.0,-999.0,70,-99.99,,,-99.99,,2013-03-04 17:22:00,
2013-03-04 12:32:00,25.0,16.0,30.04,NW,318,6.0,-999.0,68,-99.99,,,-99.99,,2013-03-04 17:32:00,
2013-03-04 12:42:00,25.0,16.0,30.04,NW,318,6.0,-999.0,68,-99.99,,,-99.99,,2013-03-04 17:42:00,
2013-03-04 12:52:00,26.0,16.0,30.04,SW,215,3.0,-999.0,66,-99.99,,,-99.99,,2013-03-04 17:52:00,
2013-03-04 13:02:00,26.0,16.0,30.04,WNW,299,6.0,-999.0,64,-99.99,,,-99.99,,2013-03-04 18:02:00,
2013-03-04 13:11:00,26.0,16.0,30.04,WNW,299,6.0,-999.0,64,-99.99,,,-99.99,,2013-03-04 18:11:00,
2013-03-04 13:22:00,26.0,16.0,30.03,NW,312,6.0,-999.0,64,-99.99,,,-99.99,,2013-03-04 18:22:00,
2013-03-04 13:32:00,26.0,14.0,30.03,NW,325,6.0,-999.0,61,-99.99,,,-99.99,,2013-03-04 18:32:00,
2013-03-04 13:42:00,26.0,14.0,30.03,NW,325,6.0,-999.0,61,-99.99,,,-99.99,,2013-03-04 18:42:00,
2013-03-04 13:52:00,28.0,16.0,30.02,NW,322,6.0,-999.0,60,-99.99,,,-99.99,,2013-03-04 18:52:00,
2013-03-04 14:02:00,28.0,16.0,30.03,NW,326,5.0,-999.0,60,-99.99,,,-99.99,,2013-03-04 19:02:00,
2013-03-04 14:12:00,28.0,16.0,30.03,NW,326,5.0,-999.0,60,-99.99,,,-99.99,,2013-03-04 19:12:00,
2013-03-04 14:22:00,29.0,16.0,30.02,WSW,247,6.0,-999.0,57,-99.99,,,-99.99,,2013-03-04 19:22:00,
2013-03-04 14:32:00,30.0,16.0,30.02,NNW,330,4.0,-999.0,55,-99.99,,,-99.99,,2013-03-04 19:32:00,
2013-03-04 14:42:00,30.0,16.0,30.02,NNW,330,4.0,-999.0,55,-99.99,,,-99.99,,2013-03-04 19:42:00,
2013-03-04 14:52:00,30.0,16.0,30.02,NNW,330,4.0,-999.0,55,-99.99,,,-99.99,,2013-03-04 19:52:00,
2013-03-04 15:02:00,29.0,15.0,30.02,NW,318,7.0,-999.0,55,-99.99,,,-99.99,,2013-03-04 20:02:00,
2013-03-04 15:12:00,29.0,15.0,30.02,NW,318,7.0,-999.0,55,-99.99,,,-99.99,,2013-03-04 20:12:00,
2013-03-04 15:22:00,29.0,16.0,30.01,WSW,247,6.0,-999.0,57,-99.99,,,-99.99,,2013-03-04 20:22:00,
2013-03-04 15:32:00,29.0,14.0,30.02,WNW,295,8.0,-999.0,54,-99.99,,,-99.99,,2013-03-04 20:32:00,
2013-03-04 15:42:00,29.0,14.0,30.02,WNW,295,8.0,-999.0,54,-99.99,,,-99.99,,2013-03-04 20:42:00,
2013-03-04 15:52:00,29.0,14.0,30.02,NW,311,6.0,-999.0,54,-99.99,,,-99.99,,2013-03-04 20:52:00,
2013-03-04 16:02:00,29.0,15.0,30.02,NW,319,8.0,-999.0,55,-99.99,,,-99.99,,2013-03-04 21:02:00,
2013-03-04 16:12:00,29.0,15.0,30.02,NW,319,8.0,-999.0,55,-99.99,,,-99.99,,2013-03-04 21:12:00,
2013-03-04 16:22:00,30.0,15.0,30.02,NNW,337,5.0,-999.0,53,-99.99,,,-99.99,,2013-03-04 21:22:00,
2013-03-04 16:32:00,29.0,14.0,30.02,NW,319,8.0,-999.0,54,-99.99,,,-99.99,,2013-03-04 21:32:00,
2013-03-04 16:42:00,29.0,14.0,30.02,NW,319,8.0,-999.0,54,-99.99,,,-99.99,,2013-03-04 21:42:00,
2013-03-04 16:52:00,29.0,14.0,30.02,NW,318,5.0,-999.0,53,-99.99,,,-99.99,,2013-03-04 21:52:00,
2013-03-04 17:02:00,29.0,15.0,30.01,NNW,330,7.0,-999.0,55,-99.99,,,-99.99,,2013-03-04 22:02:00,
2013-03-04 17:12:00,29.0,15.0,30.01,NNW,330,7.0,-999.0,55,-99.99,,,-99.99,,2013-03-04 22:12:00,
2013-03-04 17:22:00,28.0,15.0,30.01,NW,312,5.0,-999.0,57,-99.99,,,-99.99,,2013-03-04 22:22:00,
2013-03-04 17:32:00,28.0,16.0,30.02,WNW,292,3.0,-999.0,59,-99.99,,,-99.99,,2013-03-04 22:32:00,
2013-03-04 17:42:00,28.0,16.0,30.02,WNW,292,3.0,-999.0,59,-99.99,,,-99.99,,2013-03-04 22:42:00,
2013-03-04 17:52:00,27.0,15.0,30.02,NW,316,4.0,-999.0,61,-99.99,,,-99.99,,2013-03-04 22:52:00,
2013-03-04 18:02:00,26.0,15.0,30.03,NNW,333,4.0,-999.0,63,-99.99,,,-99.99,,2013-03-04 23:02:00,
2013-03-04 18:11:00,26.0,15.0,30.03,NNW,333,4.0,-999.0,63,-99.99,,,-99.99,,2013-03-04 23:11:00,
2013-03-04 18:22:00,25.0,15.0,30.03,NW,311,5.0,-999.0,64,-99.99,,,-99.99,,2013-03-04 23:22:00,
2013-03-04 18:32:00,25.0,15.0,30.03,NW,315,3.0,-999.0,65,-99.99,,,-99.99,,2013-03-04 23:32:00,
2013-03-04 18:42:00,25.0,15.0,30.03,NW,315,3.0,-999.0,65,-99.99,,,-99.99,,2013-03-04 23:42:00,
2013-03-04 18:52:00,24.0,15.0,30.04,NW,318,3.0,-999.0,67,-99.99,,,-99.99,,2013-03-04 23:52:00,
2013-03-04 19:02:00,24.0,15.0,30.04,NW,320,1.0,-999.0,68,-99.99,,,-99.99,,2013-03-05 00:02:00,
2013-03-04 19:12:00,24.0,15.0,30.04,NW,320,1.0,-999.0,68,-99.99,,,-99.99,,2013-03-05 00:12:00,
2013-03-04 19:22:00,23.0,15.0,30.05,NW,325,1.0,-999.0,70,-99.99,,,-99.99,,2013-03-05 00:22:00,
2013-03-04 19:32:00,23.0,15.0,30.05,NW,325,1.0,-999.0,70,-99.99,,,-99.99,,2013-03-05 00:32:00,
2013-03-04 19:42:00,23.0,15.0,30.05,NW,325,1.0,-999.0,70,-99.99,,,-99.99,,2013-03-05 00:42:00,
2013-03-04 19:52:00,22.0,15.0,30.05,West,277,0.0,-999.0,73,-99.99,,,-99.99,,2013-03-05 00:52:00,
2013-03-04 20:02:00,21.0,14.0,30.05,West,277,0.0,-999.0,74,-99.99,,,-99.99,,2013-03-05 01:02:00,
2013-03-04 20:12:00,21.0,14.0,30.05,West,277,0.0,-999.0,74,-99.99,,,-99.99,,2013-03-05 01:12:00,
2013-03-04 20:22:00,21.0,14.0,30.05,West,277,0.0,-999.0,75,-99.99,,,-99.99,,2013-03-05 01:22:00,
2013-03-04 20:33:00,20.0,14.0,30.05,West,277,0.0,-999.0,76,-99.99,,,-99.99,,2013-03-05 01:33:00,
2013-03-04 20:42:00,20.0,14.0,30.05,West,277,0.0,-999.0,76,-99.99,,,-99.99,,2013-03-05 01:42:00,
2013-03-04 20:52:00,20.0,14.0,30.05,West,277,0.0,-999.0,77,-99.99,,,-99.99,,2013-03-05 01:52:00,
2013-03-04 21:02:00,20.0,14.0,30.05,West,277,0.0,-999.0,77,-99.99,,,-99.99,,2013-03-05 02:02:00,
2013-03-04 21:12:00,20.0,14.0,30.05,West,277,0.0,-999.0,77,-99.99,,,-99.99,,2013-03-05 02:12:00,
2013-03-04 21:22:00,19.0,13.0,30.05,West,277,0.0,-999.0,78,-99.99,,,-99.99,,2013-03-05 02:22:00,
2013-03-04 21:32:00,19.0,13.0,30.05,West,277,0.0,-999.0,78,-99.99,,,-99.99,,2013-03-05 02:32:00,
2013-03-04 21:42:00,19.0,13.0,30.05,West,277,0.0,-999.0,78,-99.99,,,-99.99,,2013-03-05 02:42:00,
2013-03-04 21:52:00,19.0,14.0,30.05,West,277,0.0,-999.0,79,-99.99,,,-99.99,,2013-03-05 02:52:00,
2013-03-04 22:02:00,18.0,13.0,30.06,West,277,0.0,-999.0,80,-99.99,,,-99.99,,2013-03-05 03:02:00,
2013-03-04 22:12:00,18.0,13.0,30.06,West,277,0.0,-999.0,80,-99.99,,,-99.99,,2013-03-05 03:12:00,
2013-03-04 22:22:00,17.0,12.0,30.05,West,277,0.0,-999.0,80,-99.99,,,-99.99,,2013-03-05 03:22:00,
2013-03-04 22:32:00,17.0,12.0,30.05,West,277,0.0,-999.0,81,-99.99,,,-99.99,,2013-03-05 03:32:00,
2013-03-04 22:42:00,17.0,12.0,30.05,West,277,0.0,-999.0,81,-99.99,,,-99.99,,2013-03-05 03:42:00,
2013-03-04 22:52:00,17.0,12.0,30.05,West,277,0.0,-999.0,81,-99.99,,,-99.99,,2013-03-05 03:52:00,
2013-03-04 23:02:00,16.0,11.0,30.05,West,277,0.0,-999.0,82,-99.99,,,-99.99,,2013-03-05 04:02:00,
2013-03-04 23:12:00,16.0,11.0,30.05,West,277,0.0,-999.0,82,-99.99,,,-99.99,,2013-03-05 04:12:00,
2013-03-04 23:22:00,15.0,11.0,30.05,West,277,0.0,-999.0,82,-99.99,,,-99.99,,2013-03-05 04:22:00,
2013-03-04 23:32:00,15.0,11.0,30.06,West,277,0.0,-999.0,82,-99.99,,,-99.99,,2013-03-05 04:32:00,
2013-03-04 23:42:00,15.0,11.0,30.06,West,277,0.0,-999.0,82,-99.99,,,-99.99,,2013-03-05 04:42:00,
2013-03-04 23:52:00,14.0,10.0,30.06,West,277,0.0,-999.0,83,-99.99,,,-99.99,,2013-03-05 04:52:00,